| time (UTC) | temp F | wind direction | speed knots | gust knots | rain 1hr in | rain 24hr in | rain mn in | humidity % | barometer mb |
| 20260505153216 | 50 | 162 | 4.3 | 6.1 | 0.00 | 0.00 | 0.00 | 62 | 995.3 |
| 20260505152713 | 50 | 176 | 3.5 | 4.3 | 0.00 | 0.00 | 0.00 | 62 | 995.6 |
| 20260505152208 | 50 | 148 | 3.5 | 7.0 | 0.00 | 0.00 | 0.00 | 62 | 995.6 |
| 20260505151703 | 51 | 282 | 5.2 | 8.7 | 0.00 | 0.00 | 0.00 | 61 | 995.4 |
| 20260505151201 | 51 | 199 | 1.7 | 2.6 | 0.00 | 0.00 | 0.00 | 61 | 995.4 |
| 20260505150657 | 51 | 193 | 0.9 | 1.7 | 0.00 | 0.00 | 0.00 | 61 | 995.3 |
| 20260505150154 | 51 | 189 | 7.0 | 8.7 | 0.00 | 0.00 | 0.00 | 60 | 995.3 |
| 20260505140623 | 51 | 177 | 0.9 | 0.9 | 0.00 | 0.00 | 0.00 | 58 | 995.1 |
| 20260505140120 | 52 | 186 | 2.6 | 4.3 | 0.00 | 0.00 | 0.00 | 58 | 995.0 |
| 20260505125036 | 53 | 192 | 0.9 | 2.6 | 0.00 | 0.00 | 0.00 | 60 | 993.8 |
| 20260505124533 | 53 | 172 | 2.6 | 2.6 | 0.00 | 0.00 | 0.00 | 59 | 994.0 |
| 20260505124029 | 53 | 189 | 1.7 | 1.7 | 0.00 | 0.00 | 0.00 | 60 | 993.7 |
| 20260505123526 | 53 | 201 | 0.9 | 1.7 | 0.00 | 0.00 | 0.00 | 62 | 993.7 |
| 20260505123022 | 53 | 181 | 0.9 | 1.7 | 0.00 | 0.00 | 0.00 | 65 | 993.7 |
| 20260505122519 | 53 | 195 | 0.9 | 0.9 | 0.00 | 0.00 | 0.00 | 65 | 993.7 |
| 20260505122016 | 53 | 181 | 0.9 | 1.7 | 0.00 | 0.00 | 0.00 | 65 | 993.7 |
| 20260505121512 | 52 | 180 | 2.6 | 2.6 | 0.00 | 0.00 | 0.00 | 65 | 994.0 |
| 20260505121009 | 52 | 186 | 0.9 | 0.9 | 0.00 | 0.00 | 0.00 | 66 | 993.7 |
| 20260505120506 | 52 | 190 | 3.5 | 4.3 | 0.00 | 0.00 | 0.00 | 66 | 993.7 |
| 20260505120006 | 52 | 187 | 1.7 | 1.7 | 0.00 | 0.00 | 0.00 | 68 | 994.0 |
| 20260505115501 | 52 | 187 | 0.9 | 0.9 | 0.00 | 0.00 | 0.00 | 68 | 993.8 |
| 20260505114959 | 52 | 183 | 0.0 | 0.0 | 0.00 | 0.00 | 0.00 | 67 | 994.1 |
| 20260505114455 | 52 | 184 | 0.0 | 0.9 | 0.00 | 0.00 | 0.00 | 67 | 994.1 |
| 20260505113952 | 52 | 185 | 0.0 | 0.0 | 0.00 | 0.00 | 0.00 | 66 | 994.0 |
| 20260505113448 | 53 | 186 | 0.9 | 0.9 | 0.00 | 0.00 | 0.00 | 65 | 994.1 |
| 20260505112943 | 53 | 185 | 0.0 | 0.0 | 0.00 | 0.00 | 0.00 | 61 | 994.1 |
| 20260505112441 | 53 | 185 | 0.0 | 0.0 | 0.00 | 0.00 | 0.00 | 61 | 994.2 |
| 20260505111938 | 53 | 185 | 0.9 | 0.9 | 0.00 | 0.00 | 0.00 | 63 | 994.2 |
| 20260505111432 | 53 | 184 | 0.9 | 0.9 | 0.00 | 0.00 | 0.00 | 62 | 994.2 |
| 20260505110929 | 53 | 177 | 0.0 | 0.0 | 0.00 | 0.00 | 0.00 | 64 | 994.1 |
| 20260505110425 | 52 | 174 | 1.7 | 1.7 | 0.00 | 0.00 | 0.00 | 65 | 994.2 |
| 20260505101856 | 54 | 175 | 0.0 | 0.9 | 0.00 | 0.00 | 0.00 | 57 | 993.8 |
| 20260505101351 | 54 | 174 | 0.9 | 0.9 | 0.00 | 0.00 | 0.00 | 57 | 994.1 |
| 20260505100847 | 54 | 199 | 0.9 | 0.9 | 0.00 | 0.00 | 0.00 | 57 | 994.0 |
| 20260505100344 | 54 | 185 | 0.0 | 0.9 | 0.00 | 0.00 | 0.00 | 58 | 994.2 |
| 20260505095839 | 54 | 194 | 1.7 | 2.6 | 0.00 | 0.00 | 0.00 | 59 | 994.1 |
| 20260505095337 | 54 | 169 | 1.7 | 2.6 | 0.00 | 0.00 | 0.00 | 60 | 994.1 |
| 20260505094833 | 54 | 189 | 1.7 | 1.7 | 0.00 | 0.00 | 0.00 | 60 | 994.2 |
| 20260505094330 | 55 | 172 | 0.9 | 1.7 | 0.00 | 0.00 | 0.00 | 59 | 994.2 |
| 20260505093825 | 55 | 186 | 0.9 | 0.9 | 0.00 | 0.00 | 0.00 | 58 | 994.2 |
| 20260505093324 | 55 | 166 | 0.9 | 1.7 | 0.00 | 0.00 | 0.00 | 59 | 994.1 |
| 20260505092820 | 55 | 177 | 0.9 | 0.9 | 0.00 | 0.00 | 0.00 | 57 | 994.0 |
| 20260505092319 | 54 | 185 | 0.9 | 1.7 | 0.00 | 0.00 | 0.00 | 58 | 994.2 |
| 20260505091815 | 54 | 181 | 0.9 | 0.9 | 0.00 | 0.00 | 0.00 | 60 | 994.1 |
| 20260505091314 | 55 | 180 | 0.9 | 0.9 | 0.00 | 0.00 | 0.00 | 60 | 994.2 |
| 20260505090811 | 55 | 185 | 0.0 | 0.9 | 0.00 | 0.00 | 0.00 | 60 | 994.1 |
| 20260505090309 | 55 | 196 | 0.9 | 1.7 | 0.00 | 0.00 | 0.00 | 60 | 994.2 |
| 20260505085806 | 55 | 184 | 0.9 | 0.9 | 0.00 | 0.00 | 0.00 | 61 | 994.1 |
| 20260505085305 | 55 | 183 | 0.0 | 0.0 | 0.00 | 0.00 | 0.00 | 61 | 994.2 |
| 20260505084801 | 55 | 187 | 0.0 | 0.0 | 0.00 | 0.00 | 0.00 | 62 | 994.3 |
| 20260505084300 | 55 | 196 | 0.0 | 0.9 | 0.00 | 0.00 | 0.00 | 61 | 994.2 |
| 20260505083757 | 55 | 184 | 1.7 | 2.6 | 0.00 | 0.00 | 0.00 | 61 | 994.2 |
| 20260505083253 | 55 | 222 | 2.6 | 4.3 | 0.00 | 0.00 | 0.00 | 61 | 994.2 |
| 20260505082749 | 55 | 178 | 0.9 | 1.7 | 0.00 | 0.00 | 0.00 | 61 | 994.3 |
| 20260505082247 | 55 | 184 | 0.9 | 0.9 | 0.00 | 0.00 | 0.00 | 62 | 994.3 |
| 20260505081743 | 54 | 183 | 0.9 | 1.7 | 0.00 | 0.00 | 0.00 | 62 | 994.5 |
| 20260505081240 | 54 | 190 | 0.9 | 2.6 | 0.00 | 0.00 | 0.00 | 63 | 994.4 |
| 20260505080737 | 54 | 190 | 0.9 | 1.7 | 0.00 | 0.00 | 0.00 | 63 | 994.6 |
| 20260505080232 | 54 | 178 | 2.6 | 2.6 | 0.00 | 0.00 | 0.00 | 63 | 994.4 |
| 20260505075728 | 55 | 213 | 2.6 | 2.6 | 0.00 | 0.00 | 0.00 | 61 | 994.4 |
| 20260505075226 | 55 | 182 | 2.6 | 4.3 | 0.00 | 0.00 | 0.00 | 57 | 994.5 |
| 20260505074723 | 55 | 191 | 1.7 | 1.7 | 0.00 | 0.00 | 0.00 | 57 | 994.6 |
| 20260505074220 | 55 | 191 | 1.7 | 2.6 | 0.00 | 0.00 | 0.00 | 56 | 994.4 |
| 20260505073718 | 55 | 185 | 0.0 | 0.9 | 0.00 | 0.00 | 0.00 | 56 | 994.5 |
| 20260505073215 | 55 | 188 | 0.9 | 1.7 | 0.00 | 0.00 | 0.00 | 55 | 994.3 |
| 20260505072711 | 55 | 220 | 1.7 | 1.7 | 0.00 | 0.00 | 0.00 | 55 | 994.5 |
| 20260505072208 | 55 | 188 | 2.6 | 2.6 | 0.00 | 0.00 | 0.00 | 54 | 994.4 |
| 20260505071703 | 56 | 186 | 3.5 | 4.3 | 0.00 | 0.00 | 0.00 | 53 | 994.3 |
| 20260505071201 | 56 | 250 | 1.7 | 4.3 | 0.00 | 0.00 | 0.00 | 52 | 994.3 |
| 20260505070658 | 56 | 159 | 2.6 | 2.6 | 0.00 | 0.00 | 0.00 | 52 | 994.4 |
| 20260505070154 | 56 | 212 | 4.3 | 7.0 | 0.00 | 0.00 | 0.00 | 51 | 994.4 |
| 20260505065650 | 56 | 210 | 2.6 | 4.3 | 0.00 | 0.00 | 0.00 | 51 | 994.4 |
| 20260505065147 | 56 | 200 | 3.5 | 6.1 | 0.00 | 0.00 | 0.00 | 51 | 994.3 |
| 20260505064644 | 56 | 177 | 4.3 | 5.2 | 0.00 | 0.00 | 0.00 | 52 | 994.4 |
| 20260505064142 | 55 | 226 | 2.6 | 2.6 | 0.00 | 0.00 | 0.00 | 53 | 994.5 |
| 20260505063640 | 55 | 195 | 4.3 | 6.1 | 0.00 | 0.00 | 0.00 | 55 | 994.3 |
| 20260505063136 | 55 | 173 | 3.5 | 6.1 | 0.00 | 0.00 | 0.00 | 56 | 994.3 |
| 20260505062632 | 55 | 178 | 4.3 | 6.1 | 0.00 | 0.00 | 0.00 | 57 | 994.3 |
| 20260505062129 | 54 | 124 | 3.5 | 5.2 | 0.00 | 0.00 | 0.00 | 59 | 994.3 |
| 20260505061626 | 54 | 219 | 1.7 | 2.6 | 0.00 | 0.00 | 0.00 | 60 | 994.4 |
| 20260505061125 | 54 | 175 | 2.6 | 4.3 | 0.00 | 0.00 | 0.00 | 60 | 994.4 |
| 20260505060622 | 55 | 100 | 4.3 | 7.0 | 0.00 | 0.00 | 0.00 | 59 | 994.4 |
| 20260505060118 | 55 | 190 | 3.5 | 7.0 | 0.00 | 0.00 | 0.00 | 59 | 994.5 |
| 20260505055614 | 55 | 162 | 2.6 | 4.3 | 0.00 | 0.00 | 0.00 | 59 | 994.5 |
| 20260505055110 | 55 | 179 | 4.3 | 7.0 | 0.00 | 0.00 | 0.00 | 58 | 994.5 |
| 20260505054608 | 55 | 209 | 4.3 | 5.2 | 0.00 | 0.00 | 0.00 | 58 | 994.6 |
| 20260505054106 | 55 | 179 | 1.7 | 2.6 | 0.00 | 0.00 | 0.00 | 57 | 994.5 |
| 20260505053603 | 56 | 128 | 6.1 | 8.7 | 0.00 | 0.00 | 0.00 | 56 | 994.3 |
| 20260505053059 | 56 | 201 | 3.5 | 4.3 | 0.00 | 0.00 | 0.00 | 55 | 994.3 |
| 20260505052556 | 56 | 171 | 5.2 | 7.8 | 0.00 | 0.00 | 0.00 | 54 | 994.0 |
| 20260505052054 | 56 | 190 | 3.5 | 4.3 | 0.00 | 0.00 | 0.00 | 54 | 994.0 |
| 20260505051550 | 56 | 103 | 4.3 | 5.2 | 0.00 | 0.00 | 0.00 | 54 | 994.0 |
| 20260505051048 | 56 | 183 | 5.2 | 6.1 | 0.00 | 0.00 | 0.00 | 54 | 994.0 |
| 20260505050546 | 56 | 187 | 2.6 | 2.6 | 0.00 | 0.00 | 0.00 | 55 | 993.8 |
| 20260505041514 | 60 | 191 | 1.7 | 2.6 | 0.00 | 0.00 | 0.00 | 41 | 993.2 |
| 20260505041012 | 60 | 155 | 2.6 | 4.3 | 0.00 | 0.00 | 0.00 | 41 | 993.3 |
| 20260505040509 | 60 | 169 | 3.5 | 5.2 | 0.00 | 0.00 | 0.00 | 41 | 993.4 |
| 20260505040006 | 60 | 178 | 4.3 | 5.2 | 0.00 | 0.00 | 0.00 | 41 | 993.3 |
| 20260505035501 | 60 | 190 | 1.7 | 1.7 | 0.00 | 0.00 | 0.00 | 41 | 993.2 |
| 20260505034959 | 60 | 193 | 0.9 | 0.9 | 0.00 | 0.00 | 0.00 | 42 | 993.3 |
| 20260505034455 | 60 | 184 | 0.0 | 0.0 | 0.00 | 0.00 | 0.00 | 43 | 993.3 |
| 20260505033952 | 60 | 185 | 0.0 | 0.0 | 0.00 | 0.00 | 0.00 | 44 | 993.2 |
| 20260505033449 | 60 | 183 | 1.7 | 1.7 | 0.00 | 0.00 | 0.00 | 43 | 993.2 |
| 20260505032947 | 60 | 180 | 1.7 | 1.7 | 0.00 | 0.00 | 0.00 | 44 | 992.9 |
| 20260505032444 | 60 | 182 | 1.7 | 1.7 | 0.00 | 0.00 | 0.00 | 44 | 992.9 |
| 20260505031940 | 60 | 193 | 0.9 | 0.9 | 0.00 | 0.00 | 0.00 | 44 | 993.2 |
| 20260505031438 | 61 | 183 | 0.9 | 1.7 | 0.00 | 0.00 | 0.00 | 44 | 992.8 |
| 20260505030935 | 61 | 186 | 2.6 | 4.3 | 0.00 | 0.00 | 0.00 | 45 | 992.8 |
| 20260505030430 | 61 | 194 | 1.7 | 1.7 | 0.00 | 0.00 | 0.00 | 45 | 992.8 |
| 20260505025926 | 61 | 181 | 1.7 | 1.7 | 0.00 | 0.00 | 0.00 | 43 | 992.8 |
| 20260505025423 | 62 | 181 | 1.7 | 1.7 | 0.00 | 0.00 | 0.00 | 42 | 992.9 |
| 20260505024922 | 62 | 178 | 0.9 | 0.9 | 0.00 | 0.00 | 0.00 | 42 | 992.8 |
| 20260505024419 | 62 | 185 | 2.6 | 4.3 | 0.00 | 0.00 | 0.00 | 41 | 992.5 |
| 20260505023916 | 62 | 189 | 2.6 | 6.1 | 0.00 | 0.00 | 0.00 | 40 | 992.7 |
| 20260505023413 | 63 | 179 | 4.3 | 6.1 | 0.00 | 0.00 | 0.00 | 40 | 992.4 |
| 20260505022910 | 63 | 185 | 2.6 | 4.3 | 0.00 | 0.00 | 0.00 | 39 | 992.6 |
| 20260505022408 | 63 | 195 | 0.9 | 1.7 | 0.00 | 0.00 | 0.00 | 39 | 992.6 |
| 20260505021905 | 63 | 194 | 0.9 | 1.7 | 0.00 | 0.00 | 0.00 | 39 | 992.6 |
| 20260505021401 | 63 | 210 | 2.6 | 2.6 | 0.00 | 0.00 | 0.00 | 39 | 992.5 |
| 20260505020857 | 64 | 177 | 2.6 | 4.3 | 0.00 | 0.00 | 0.00 | 39 | 992.5 |
| 20260505020353 | 64 | 201 | 1.7 | 2.6 | 0.00 | 0.00 | 0.00 | 39 | 992.1 |
| 20260505015850 | 64 | 214 | 2.6 | 4.3 | 0.00 | 0.00 | 0.00 | 39 | 992.2 |
| 20260505015347 | 64 | 180 | 2.6 | 4.3 | 0.00 | 0.00 | 0.00 | 38 | 992.1 |
| 20260505014844 | 65 | 211 | 2.6 | 4.3 | 0.00 | 0.00 | 0.00 | 38 | 992.4 |
| 20260505014341 | 66 | 194 | 2.6 | 4.3 | 0.00 | 0.00 | 0.00 | 37 | 992.1 |
| 20260505013838 | 68 | 196 | 1.7 | 1.7 | 0.00 | 0.00 | 0.00 | 30 | 992.5 |
| 20260505013335 | 69 | 183 | 0.9 | 1.7 | 0.00 | 0.00 | 0.00 | 30 | 992.2 |
| 20260505012833 | 70 | 186 | 3.5 | 4.3 | 0.00 | 0.00 | 0.00 | 29 | 992.4 |
| 20260505012331 | 70 | 151 | 0.9 | 1.7 | 0.00 | 0.00 | 0.00 | 29 | 992.2 |
| 20260505011826 | 69 | 187 | 0.0 | 0.0 | 0.00 | 0.00 | 0.00 | 30 | 992.2 |
| 20260505011323 | 69 | 184 | 0.9 | 0.9 | 0.00 | 0.00 | 0.00 | 30 | 992.2 |
| 20260505010819 | 68 | 187 | 0.9 | 0.9 | 0.00 | 0.00 | 0.00 | 30 | 992.5 |
| 20260505010315 | 69 | 186 | 0.0 | 0.0 | 0.00 | 0.00 | 0.00 | 29 | 992.5 |
| 20260505005812 | 69 | 185 | 0.0 | 0.0 | 0.00 | 0.00 | 0.00 | 30 | 992.7 |
| 20260505005309 | 69 | 185 | 0.0 | 0.0 | 0.00 | 0.00 | 0.00 | 30 | 992.6 |
| 20260505004806 | 69 | 185 | 0.0 | 0.9 | 0.00 | 0.00 | 0.00 | 30 | 992.5 |
| 20260505004302 | 68 | 186 | 0.0 | 0.0 | 0.00 | 0.00 | 0.00 | 31 | 992.6 |
| 20260505003800 | 68 | 185 | 0.0 | 0.9 | 0.00 | 0.00 | 0.00 | 32 | 992.6 |
| 20260505003257 | 68 | 187 | 0.0 | 0.9 | 0.00 | 0.00 | 0.00 | 32 | 992.5 |
| 20260505002753 | 68 | 185 | 0.9 | 1.7 | 0.00 | 0.00 | 0.00 | 31 | 992.6 |
| 20260505002251 | 68 | 186 | 0.0 | 0.0 | 0.00 | 0.00 | 0.00 | 32 | 992.7 |
| 20260505001748 | 69 | 185 | 0.9 | 0.9 | 0.00 | 0.00 | 0.00 | 31 | 992.7 |
| 20260505001245 | 70 | 187 | 0.0 | 0.0 | 0.00 | 0.00 | 0.00 | 31 | 992.7 |
| 20260505000742 | 71 | 190 | 0.0 | 0.0 | 0.00 | 0.00 | 0.00 | 30 | 992.7 |
| 20260505000240 | 71 | 187 | 0.9 | 0.9 | 0.00 | 0.00 | 0.00 | 30 | 992.8 |
| 20260504235736 | 70 | 186 | 0.0 | 0.0 | 0.00 | 0.00 | 0.00 | 31 | 992.7 |
| 20260504235233 | 71 | 252 | 1.7 | 4.3 | 0.00 | 0.00 | 0.00 | 30 | 992.7 |
| 20260504234730 | 70 | 187 | 0.0 | 0.0 | 0.00 | 0.00 | 0.00 | 28 | 992.8 |
| 20260504234227 | 71 | 192 | 1.7 | 1.7 | 0.00 | 0.00 | 0.00 | 27 | 992.8 |
| 20260504233724 | 68 | 187 | 0.9 | 0.9 | 0.00 | 0.00 | 0.00 | 30 | 992.7 |
| 20260504233219 | 68 | 181 | 2.6 | 2.6 | 0.00 | 0.00 | 0.00 | 30 | 992.8 |
| 20260504232717 | 68 | 187 | 1.7 | 1.7 | 0.00 | 0.00 | 0.00 | 32 | 993.2 |
| 20260504232214 | 68 | 187 | 0.9 | 0.9 | 0.00 | 0.00 | 0.00 | 33 | 993.3 |
| 20260504231710 | 68 | 184 | 0.0 | 0.0 | 0.00 | 0.00 | 0.00 | 33 | 993.3 |
| 20260504231207 | 68 | 195 | 1.7 | 4.3 | 0.00 | 0.00 | 0.00 | 33 | 993.5 |
| 20260504230703 | 68 | 173 | 2.6 | 2.6 | 0.00 | 0.00 | 0.00 | 33 | 993.2 |
| 20260504230202 | 70 | 193 | 0.9 | 1.7 | 0.00 | 0.00 | 0.00 | 32 | 993.4 |
| 20260504225700 | 72 | 189 | 1.7 | 2.6 | 0.00 | 0.00 | 0.00 | 30 | 993.2 |
| 20260504225155 | 74 | 185 | 0.0 | 0.9 | 0.00 | 0.00 | 0.00 | 24 | 992.9 |
| 20260504224653 | 72 | 188 | 0.0 | 0.0 | 0.00 | 0.00 | 0.00 | 26 | 992.9 |
| 20260504224149 | 71 | 187 | 0.0 | 0.0 | 0.00 | 0.00 | 0.00 | 27 | 993.0 |
| 20260504223647 | 70 | 257 | 1.7 | 1.7 | 0.00 | 0.00 | 0.00 | 28 | 992.9 |
| 20260504223142 | 69 | 343 | 2.6 | 4.3 | 0.00 | 0.00 | 0.00 | 29 | 992.9 |
| 20260504222639 | 69 | 325 | 4.3 | 5.2 | 0.00 | 0.00 | 0.00 | 29 | 992.8 |
| 20260504222136 | 68 | 233 | 3.5 | 4.3 | 0.00 | 0.00 | 0.00 | 29 | 992.9 |
| 20260504221634 | 69 | 296 | 2.6 | 2.6 | 0.00 | 0.00 | 0.00 | 29 | 992.9 |
| 20260504221131 | 70 | 91 | 4.3 | 5.2 | 0.00 | 0.00 | 0.00 | 28 | 993.0 |
| 20260504220627 | 71 | 184 | 1.7 | 1.7 | 0.00 | 0.00 | 0.00 | 28 | 992.9 |
| 20260504220125 | 70 | 193 | 0.0 | 0.9 | 0.00 | 0.00 | 0.00 | 28 | 993.2 |
| 20260504215621 | 69 | 158 | 0.9 | 0.9 | 0.00 | 0.00 | 0.00 | 29 | 992.9 |
| 20260504215118 | 69 | 165 | 0.9 | 0.9 | 0.00 | 0.00 | 0.00 | 30 | 993.2 |
| 20260504214614 | 68 | 181 | 1.7 | 1.7 | 0.00 | 0.00 | 0.00 | 31 | 993.3 |
| 20260504214110 | 67 | 180 | 1.7 | 2.6 | 0.00 | 0.00 | 0.00 | 32 | 993.4 |
| 20260504213607 | 66 | 212 | 2.6 | 2.6 | 0.00 | 0.00 | 0.00 | 33 | 993.4 |
| 20260504213104 | 66 | 180 | 2.6 | 4.3 | 0.00 | 0.00 | 0.00 | 35 | 993.5 |
| 20260504212600 | 65 | 188 | 0.9 | 1.7 | 0.00 | 0.00 | 0.00 | 35 | 993.3 |
| 20260504212057 | 64 | 180 | 1.7 | 2.6 | 0.00 | 0.00 | 0.00 | 37 | 993.3 |
| 20260504211554 | 65 | 148 | 4.3 | 7.0 | 0.00 | 0.00 | 0.00 | 38 | 993.5 |
| 20260504211051 | 65 | 207 | 2.6 | 5.2 | 0.00 | 0.00 | 0.00 | 37 | 993.6 |
| 20260504210548 | 66 | 164 | 2.6 | 4.3 | 0.00 | 0.00 | 0.00 | 37 | 993.6 |
| 20260504210045 | 66 | 171 | 0.9 | 1.7 | 0.00 | 0.00 | 0.00 | 36 | 993.8 |
| 20260504205543 | 66 | 185 | 2.6 | 2.6 | 0.00 | 0.00 | 0.00 | 36 | 993.8 |
| 20260504205040 | 68 | 184 | 0.9 | 0.9 | 0.00 | 0.00 | 0.00 | 28 | 993.6 |
| 20260504204538 | 68 | 159 | 1.7 | 1.7 | 0.00 | 0.00 | 0.00 | 28 | 993.5 |
| 20260504204037 | 68 | 183 | 0.9 | 1.7 | 0.00 | 0.00 | 0.00 | 29 | 993.6 |
| 20260504203535 | 67 | 335 | 2.6 | 2.6 | 0.00 | 0.00 | 0.00 | 30 | 993.4 |
| 20260504203032 | 67 | 148 | 0.9 | 1.7 | 0.00 | 0.00 | 0.00 | 31 | 993.6 |
| 20260504202527 | 68 | 169 | 1.7 | 2.6 | 0.00 | 0.00 | 0.00 | 32 | 993.8 |
| 20260504202024 | 68 | 180 | 3.5 | 5.2 | 0.00 | 0.00 | 0.00 | 32 | 993.6 |
| 20260504201521 | 68 | 169 | 0.9 | 1.7 | 0.00 | 0.00 | 0.00 | 31 | 993.6 |
| 20260504201019 | 69 | 196 | 3.5 | 5.2 | 0.00 | 0.00 | 0.00 | 30 | 993.6 |
| 20260504200515 | 70 | 187 | 0.9 | 0.9 | 0.00 | 0.00 | 0.00 | 29 | 993.6 |
| 20260504200012 | 70 | 156 | 0.0 | 0.9 | 0.00 | 0.00 | 0.00 | 29 | 993.6 |
| 20260504195508 | 69 | 185 | 0.0 | 0.0 | 0.00 | 0.00 | 0.00 | 29 | 993.5 |
| 20260504195005 | 69 | 186 | 0.9 | 0.9 | 0.00 | 0.00 | 0.00 | 30 | 993.7 |
| 20260504194501 | 69 | 183 | 0.0 | 0.9 | 0.00 | 0.00 | 0.00 | 29 | 993.7 |
| 20260504193957 | 70 | 186 | 0.0 | 0.0 | 0.00 | 0.00 | 0.00 | 29 | 993.7 |
| 20260504193454 | 70 | 186 | 0.0 | 0.0 | 0.00 | 0.00 | 0.00 | 29 | 994.0 |
| 20260504192953 | 70 | 193 | 0.9 | 0.9 | 0.00 | 0.00 | 0.00 | 29 | 993.8 |
| 20260504192449 | 70 | 184 | 0.9 | 1.7 | 0.00 | 0.00 | 0.00 | 29 | 993.8 |
| 20260504191949 | 70 | 185 | 0.9 | 0.9 | 0.00 | 0.00 | 0.00 | 29 | 994.0 |
| 20260504191446 | 70 | 186 | 0.0 | 0.0 | 0.00 | 0.00 | 0.00 | 29 | 993.8 |
| 20260504190941 | 70 | 201 | 0.0 | 0.9 | 0.00 | 0.00 | 0.00 | 29 | 994.0 |
| 20260504190437 | 70 | 185 | 0.0 | 0.0 | 0.00 | 0.00 | 0.00 | 29 | 994.0 |
| 20260504185934 | 71 | 179 | 0.0 | 0.9 | 0.00 | 0.00 | 0.00 | 29 | 994.2 |
| 20260504185432 | 71 | 185 | 0.0 | 0.0 | 0.00 | 0.00 | 0.00 | 29 | 994.2 |
| 20260504184927 | 71 | 187 | 0.9 | 0.9 | 0.00 | 0.00 | 0.00 | 29 | 994.1 |
| 20260504184423 | 71 | 180 | 0.9 | 0.9 | 0.00 | 0.00 | 0.00 | 29 | 994.4 |
| 20260504183919 | 71 | 186 | 0.0 | 0.9 | 0.00 | 0.00 | 0.00 | 29 | 994.3 |
| 20260504183417 | 71 | 197 | 0.0 | 0.9 | 0.00 | 0.00 | 0.00 | 29 | 994.3 |
| 20260504182915 | 71 | 185 | 1.7 | 1.7 | 0.00 | 0.00 | 0.00 | 30 | 994.3 |
| 20260504182411 | 70 | 187 | 0.0 | 0.9 | 0.00 | 0.00 | 0.00 | 30 | 994.4 |
| 20260504181908 | 70 | 197 | 2.6 | 4.3 | 0.00 | 0.00 | 0.00 | 30 | 994.5 |
| 20260504181405 | 70 | 209 | 2.6 | 2.6 | 0.00 | 0.00 | 0.00 | 31 | 994.5 |
| 20260504180904 | 69 | 175 | 0.0 | 0.9 | 0.00 | 0.00 | 0.00 | 31 | 994.5 |
| 20260504180402 | 70 | 181 | 1.7 | 2.6 | 0.00 | 0.00 | 0.00 | 31 | 994.4 |
| 20260504175900 | 69 | 187 | 0.9 | 1.7 | 0.00 | 0.00 | 0.00 | 31 | 994.6 |
| 20260504175356 | 70 | 184 | 0.9 | 2.6 | 0.00 | 0.00 | 0.00 | 31 | 994.6 |
| 20260504174855 | 70 | 166 | 2.6 | 4.3 | 0.00 | 0.00 | 0.00 | 31 | 994.6 |
| 20260504174352 | 71 | 163 | 1.7 | 2.6 | 0.00 | 0.00 | 0.00 | 31 | 994.8 |
| 20260504173849 | 71 | 167 | 0.9 | 2.6 | 0.00 | 0.00 | 0.00 | 30 | 994.9 |
| 20260504173345 | 71 | 188 | 2.6 | 4.3 | 0.00 | 0.00 | 0.00 | 31 | 994.9 |
| 20260504172842 | 69 | 166 | 2.6 | 4.3 | 0.00 | 0.00 | 0.00 | 32 | 994.9 |
| 20260504172339 | 70 | 179 | 2.6 | 4.3 | 0.00 | 0.00 | 0.00 | 32 | 995.0 |
| 20260504171835 | 70 | 187 | 1.7 | 2.6 | 0.00 | 0.00 | 0.00 | 31 | 995.0 |
| 20260504171332 | 69 | 230 | 2.6 | 4.3 | 0.00 | 0.00 | 0.00 | 32 | 994.9 |
| 20260504170830 | 69 | 161 | 4.3 | 6.1 | 0.00 | 0.00 | 0.00 | 32 | 995.1 |
| 20260504170326 | 69 | 196 | 1.7 | 2.6 | 0.00 | 0.00 | 0.00 | 32 | 995.0 |
| 20260504160244 | 66 | 193 | 0.9 | 1.7 | 0.00 | 0.00 | 0.00 | 35 | 995.2 |